TimeEST,TemperatureF,Dew PointF,Humidity,Sea Level PressureIn,VisibilityMPH,Wind Direction,Wind SpeedMPH,Gust SpeedMPH,PrecipitationIn,Events,Conditions,WindDirDegrees,DateUTC
12:15 AM,17.6,3.2,53,30.44,10.0,NNE,12.7,-,N/A,,Clear,30,2014-03-06 05:15:00
12:35 AM,17.6,3.2,53,30.44,10.0,NNE,9.2,17.3,N/A,,Clear,30,2014-03-06 05:35:00
12:55 AM,17.6,3.2,53,30.45,10.0,North,9.2,-,N/A,,Clear,10,2014-03-06 05:55:00
1:15 AM,15.8,1.4,53,30.46,10.0,NNE,12.7,-,N/A,,Clear,20,2014-03-06 06:15:00
1:35 AM,15.8,1.4,53,30.46,10.0,NNE,12.7,18.4,N/A,,Clear,20,2014-03-06 06:35:00
1:55 AM,15.8,-0.4,49,30.47,10.0,North,10.4,-,N/A,,Clear,10,2014-03-06 06:55:00
2:15 AM,15.8,-0.4,49,30.48,10.0,NNE,11.5,-,N/A,,Clear,20,2014-03-06 07:15:00
2:35 AM,14.0,-2.2,49,30.47,10.0,NNE,13.8,17.3,N/A,,Clear,20,2014-03-06 07:35:00
2:55 AM,14.0,-2.2,49,30.47,10.0,North,9.2,-,N/A,,Clear,10,2014-03-06 07:55:00
3:15 AM,12.2,-2.2,53,30.48,10.0,NNE,13.8,19.6,N/A,,Clear,20,2014-03-06 08:15:00
3:35 AM,12.2,-5.8,45,30.47,10.0,NNE,13.8,-,N/A,,Clear,20,2014-03-06 08:35:00
3:55 AM,12.2,-4.0,48,30.48,10.0,NNE,10.4,-,N/A,,Clear,30,2014-03-06 08:55:00
4:15 AM,12.2,-5.8,45,30.49,10.0,NNE,10.4,17.3,N/A,,Clear,30,2014-03-06 09:15:00
4:35 AM,10.4,-7.6,44,30.50,10.0,NNE,12.7,17.3,N/A,,Clear,20,2014-03-06 09:35:00
4:55 AM,10.4,-7.6,44,30.50,10.0,NNE,13.8,17.3,N/A,,Clear,20,2014-03-06 09:55:00
5:15 AM,10.4,-7.6,44,30.51,10.0,NNE,12.7,-,N/A,,Clear,30,2014-03-06 10:15:00
5:35 AM,10.4,-9.4,41,30.52,10.0,NNE,12.7,-,N/A,,Clear,20,2014-03-06 10:35:00
5:45 AM,10.4,-9.4,41,30.51,10.0,NNE,11.5,-,N/A,,Clear,30,2014-03-06 10:45:00
6:55 AM,8.6,-11.2,40,30.53,10.0,NE,11.5,17.3,N/A,,Partly Cloudy,40,2014-03-06 11:55:00
7:45 AM,10.4,-11.2,37,30.56,10.0,NE,6.9,17.3,N/A,,Partly Cloudy,50,2014-03-06 12:45:00
8:45 AM,12.2,-11.2,34,30.59,10.0,ENE,9.2,18.4,N/A,,Partly Cloudy,60,2014-03-06 13:45:00
9:45 AM,15.8,-11.2,30,30.59,10.0,NE,6.9,-,N/A,,Scattered Clouds,40,2014-03-06 14:45:00
10:45 AM,17.6,-7.6,32,30.59,10.0,SSW,4.6,-,N/A,,Scattered Clouds,200,2014-03-06 15:45:00
11:52 AM,19.4,-7.6,30,30.58,10.0,SSW,5.8,-,N/A,,Scattered Clouds,200,2014-03-06 16:52:00
12:52 PM,23.0,-5.8,28,30.55,10.0,NNE,5.8,-,N/A,,Scattered Clouds,30,2014-03-06 17:52:00
1:52 PM,24.8,-4.0,28,30.54,10.0,Variable,5.8,-,N/A,,Scattered Clouds,0,2014-03-06 18:52:00
2:52 PM,26.6,-2.2,29,30.52,10.0,Variable,5.8,-,N/A,,Scattered Clouds,0,2014-03-06 19:52:00
3:50 PM,26.6,-2.2,29,30.51,10.0,NE,5.8,-,N/A,,Clear,50,2014-03-06 20:50:00
4:50 PM,26.6,-2.2,29,30.51,10.0,Calm,Calm,-,N/A,,Clear,0,2014-03-06 21:50:00
5:45 PM,26.6,-2.2,29,30.52,10.0,Calm,Calm,-,N/A,,Clear,0,2014-03-06 22:45:00
6:50 PM,23.0,-4.0,31,30.52,10.0,Calm,Calm,-,N/A,,Clear,0,2014-03-06 23:50:00
7:48 PM,19.4,-0.4,42,30.52,10.0,South,5.8,-,N/A,,Clear,170,2014-03-07 00:48:00
9:15 PM,19.4,1.4,46,30.51,10.0,Calm,Calm,-,N/A,,Clear,0,2014-03-07 02:15:00
9:35 PM,17.6,-0.4,45,30.50,10.0,Calm,Calm,-,N/A,,Clear,0,2014-03-07 02:35:00
9:55 PM,17.6,-0.4,45,30.50,10.0,Calm,Calm,-,N/A,,Clear,0,2014-03-07 02:55:00
10:15 PM,17.6,-0.4,45,30.49,10.0,Calm,Calm,-,N/A,,Clear,0,2014-03-07 03:15:00
10:35 PM,15.8,1.4,53,30.48,10.0,ESE,3.5,-,N/A,,Clear,120,2014-03-07 03:35:00
10:55 PM,17.6,-0.4,45,30.47,10.0,East,3.5,-,N/A,,Clear,90,2014-03-07 03:55:00
11:15 PM,15.8,-0.4,49,30.48,10.0,ESE,3.5,-,N/A,,Clear,110,2014-03-07 04:15:00
11:35 PM,17.6,1.4,49,30.46,10.0,East,3.5,-,N/A,,Clear,90,2014-03-07 04:35:00
11:55 PM,17.6,-0.4,45,30.46,10.0,East,3.5,-,N/A,,Clear,80,2014-03-07 04:55:00